IBE9801 LEMD-EICK

Flight info

Callsign IBE9801
Flight time N/A
Altitude 34000
Route SIE N865 DELOG/N0435F360 DCT EKDAP DCT TURDO DCT TULTA/M074F360 DCT MAPAG DCT SOVIX SOVIX1R
Aircraft A320/M-SDE3FGHIRWY/LB1

Departure

Time N/A
Airport Adolfo Suárez Madrid–Barajas Airport (LEMD)

Arrival

Time 2026-04-30 19:07
Airport Cork International Airport (EICK)
Time Latitude Longitude Altitude Speed Heading
2026-04-30 17:39 42.74220 -3.82371 34119 ft 441 kts 352°
2026-04-30 17:42 43.04846 -3.85463 34121 ft 442 kts 352°
2026-04-30 17:43 43.20167 -3.87026 34144 ft 441 kts 352°
2026-04-30 17:44 43.38478 -3.88895 34140 ft 449 kts 352°
2026-04-30 17:46 43.54455 -3.90550 34138 ft 463 kts 352°
2026-04-30 17:47 43.67307 -3.91867 34130 ft 462 kts 352°
2026-04-30 17:48 43.89753 -3.94203 34139 ft 462 kts 352°
2026-04-30 17:50 44.15346 -3.96895 34145 ft 460 kts 352°
2026-04-30 17:52 44.34178 -4.00323 34143 ft 449 kts 332°
2026-04-30 17:54 44.57584 -4.21345 34148 ft 444 kts 323°
2026-04-30 17:56 44.78168 -4.40382 34141 ft 443 kts 323°
2026-04-30 17:58 44.93603 -4.54765 34145 ft 443 kts 323°
2026-04-30 18:00 45.14182 -4.74071 34127 ft 446 kts 323°
2026-04-30 18:01 45.27096 -4.86267 34128 ft 446 kts 323°
2026-04-30 18:02 45.41784 -5.00000 34138 ft 446 kts 324°
2026-04-30 18:04 45.57429 -5.14509 34124 ft 448 kts 323°
2026-04-30 18:06 45.78299 -5.34070 34129 ft 450 kts 323°
2026-04-30 18:08 45.96611 -5.51380 34134 ft 450 kts 323°
2026-04-30 18:10 46.17587 -5.71375 34111 ft 454 kts 322°
2026-04-30 18:11 46.36026 -5.89100 34114 ft 455 kts 322°
2026-04-30 18:13 46.49191 -6.01869 34126 ft 456 kts 322°
2026-04-30 18:14 46.62350 -6.14705 34108 ft 458 kts 322°
2026-04-30 18:15 46.78243 -6.30282 34103 ft 459 kts 322°
2026-04-30 18:16 46.88849 -6.40758 34111 ft 461 kts 322°
2026-04-30 18:17 46.94165 -6.46019 34110 ft 461 kts 322°
2026-04-30 18:18 47.02130 -6.53916 34117 ft 461 kts 321°
2026-04-30 18:18 47.07437 -6.59210 34129 ft 462 kts 321°
2026-04-30 18:19 47.12758 -6.64530 34109 ft 463 kts 321°
2026-04-30 18:19 47.18043 -6.69832 34101 ft 463 kts 321°
2026-04-30 18:20 47.23375 -6.75189 34101 ft 464 kts 321°
2026-04-30 18:20 47.28723 -6.80564 34102 ft 465 kts 321°
2026-04-30 18:21 47.34068 -6.85950 34094 ft 465 kts 321°
2026-04-30 18:21 47.39418 -6.91364 34115 ft 466 kts 321°
2026-04-30 18:22 47.44774 -6.96789 34096 ft 467 kts 321°
2026-04-30 18:22 47.53085 -7.04410 34090 ft 470 kts 325°
2026-04-30 18:23 47.58710 -7.09257 34101 ft 470 kts 325°
2026-04-30 18:23 47.64333 -7.14232 34126 ft 471 kts 324°
2026-04-30 18:24 47.72739 -7.21847 34092 ft 472 kts 323°
2026-04-30 18:25 47.78353 -7.26947 34099 ft 473 kts 323°
2026-04-30 18:25 47.86807 -7.34596 34085 ft 475 kts 324°
2026-04-30 18:26 47.95272 -7.42288 34082 ft 475 kts 323°
2026-04-30 18:27 48.03744 -7.50013 34088 ft 476 kts 323°
2026-04-30 18:28 48.12197 -7.57742 34075 ft 476 kts 323°
2026-04-30 18:28 48.20671 -7.65564 34090 ft 477 kts 323°
2026-04-30 18:29 48.32006 -7.76046 34102 ft 479 kts 323°
2026-04-30 18:30 48.43379 -7.86623 34064 ft 482 kts 323°
2026-04-30 18:31 48.51905 -7.94583 34059 ft 483 kts 323°
2026-04-30 18:32 48.57885 -7.99337 34045 ft 493 kts 336°
2026-04-30 18:32 48.61212 -8.00670 34057 ft 498 kts 347°
2026-04-30 18:33 48.71570 -8.02719 34057 ft 500 kts 349°
2026-04-30 18:33 48.81945 -8.04781 34077 ft 501 kts 349°
2026-04-30 18:34 48.92293 -8.06823 34059 ft 502 kts 349°
2026-04-30 18:35 48.99234 -8.08213 34058 ft 503 kts 349°
2026-04-30 18:35 49.06181 -8.09603 34062 ft 504 kts 350°
2026-04-30 18:36 49.16638 -8.11688 34038 ft 505 kts 350°
2026-04-30 18:37 49.27054 -8.13788 34051 ft 506 kts 350°
2026-04-30 18:37 49.34045 -8.15216 34043 ft 507 kts 350°
2026-04-30 18:38 49.41045 -8.16628 34047 ft 508 kts 350°
2026-04-30 18:38 49.48060 -8.18038 34056 ft 509 kts 351°
2026-04-30 18:39 49.55100 -8.19492 34033 ft 511 kts 351°
2026-04-30 18:39 49.62147 -8.20939 34030 ft 512 kts 351°
2026-04-30 18:40 49.69218 -8.22385 34039 ft 513 kts 351°
2026-04-30 18:40 49.76309 -8.23846 34031 ft 514 kts 351°
2026-04-30 18:41 49.83414 -8.25312 34029 ft 515 kts 351°
2026-04-30 18:41 49.90480 -8.26767 34050 ft 516 kts 351°
2026-04-30 18:42 49.97611 -8.28248 34027 ft 517 kts 351°
2026-04-30 18:42 50.08340 -8.30475 34021 ft 519 kts 351°
2026-04-30 18:45 50.47845 -8.38796 34024 ft 523 kts 352°
2026-04-30 18:46 50.55061 -8.40329 34010 ft 519 kts 352°
2026-04-30 18:46 50.58575 -8.41080 34018 ft 500 kts 353°
2026-04-30 18:46 50.61984 -8.41812 34012 ft 491 kts 353°
2026-04-30 18:47 50.68731 -8.43264 33998 ft 487 kts 353°
2026-04-30 18:47 50.72073 -8.43981 33512 ft 483 kts 353°
2026-04-30 18:47 50.75388 -8.44689 32921 ft 479 kts 352°
2026-04-30 18:47 50.77576 -8.45157 32570 ft 475 kts 352°
2026-04-30 18:48 50.80830 -8.45852 32145 ft 469 kts 352°
2026-04-30 18:48 50.84052 -8.46540 31969 ft 466 kts 352°
2026-04-30 18:48 50.87274 -8.47232 32024 ft 467 kts 352°
2026-04-30 18:49 50.93711 -8.48700 31962 ft 466 kts 350°
2026-04-30 18:49 50.96860 -8.49525 31456 ft 462 kts 349°
2026-04-30 18:49 51.00014 -8.50412 30937 ft 459 kts 348°
2026-04-30 18:49 51.03187 -8.51332 30434 ft 456 kts 349°
2026-04-30 18:50 51.06309 -8.52235 29868 ft 455 kts 349°
2026-04-30 18:50 51.09415 -8.53115 29291 ft 452 kts 349°
2026-04-30 18:50 51.12470 -8.53962 28762 ft 449 kts 350°
2026-04-30 18:50 51.15541 -8.54802 28246 ft 446 kts 350°
2026-04-30 18:51 51.18593 -8.55635 27739 ft 443 kts 350°
2026-04-30 18:51 51.21618 -8.56466 27235 ft 440 kts 350°
2026-04-30 18:51 51.24628 -8.57298 26734 ft 437 kts 350°
2026-04-30 18:51 51.27616 -8.58130 26319 ft 431 kts 351°
2026-04-30 18:52 51.30533 -8.58946 26196 ft 418 kts 351°
2026-04-30 18:52 51.33356 -8.59738 25966 ft 408 kts 351°
2026-04-30 18:52 51.36139 -8.60516 25597 ft 404 kts 351°
2026-04-30 18:52 51.38898 -8.61286 25193 ft 401 kts 351°
2026-04-30 18:53 51.41648 -8.62053 24652 ft 403 kts 351°
2026-04-30 18:53 51.44423 -8.62828 24089 ft 405 kts 351°
2026-04-30 18:53 51.47210 -8.63607 23529 ft 408 kts 351°
2026-04-30 18:53 51.49941 -8.64372 22923 ft 398 kts 352°
2026-04-30 18:54 51.52638 -8.65133 22337 ft 388 kts 352°
2026-04-30 18:54 51.55267 -8.65874 21758 ft 380 kts 352°
2026-04-30 18:54 51.57853 -8.66602 21189 ft 374 kts 352°
2026-04-30 18:54 51.60394 -8.67315 20633 ft 369 kts 352°
2026-04-30 18:55 51.62914 -8.68024 20089 ft 364 kts 352°
2026-04-30 18:55 51.67831 -8.69416 19040 ft 354 kts 351°
2026-04-30 18:55 51.70257 -8.70102 18725 ft 351 kts 351°
2026-04-30 18:56 51.75023 -8.71446 18121 ft 343 kts 352°
2026-04-30 18:56 51.77373 -8.72110 17647 ft 340 kts 352°
2026-04-30 18:56 51.79664 -8.72760 17097 ft 330 kts 352°
2026-04-30 18:57 51.84078 -8.74024 16022 ft 315 kts 352°
2026-04-30 18:57 51.86191 -8.74629 15502 ft 309 kts 352°
2026-04-30 18:57 51.88283 -8.75226 15001 ft 303 kts 352°
2026-04-30 18:58 51.92381 -8.76390 14030 ft 294 kts 351°
2026-04-30 18:58 51.94378 -8.76960 13530 ft 290 kts 351°
2026-04-30 18:58 51.96355 -8.77526 12996 ft 287 kts 351°
2026-04-30 18:59 52.00244 -8.78645 11960 ft 280 kts 352°
2026-04-30 19:00 52.04646 -8.74758 10473 ft 242 kts 66°
2026-04-30 19:00 52.05502 -8.72469 9997 ft 239 kts 67°
2026-04-30 19:00 52.07261 -8.67889 8950 ft 238 kts 63°
2026-04-30 19:01 52.07759 -8.63219 7915 ft 206 kts 128°
2026-04-30 19:01 52.06652 -8.61979 7476 ft 193 kts 168°
2026-04-30 19:02 52.04070 -8.61024 6478 ft 193 kts 161°
2026-04-30 19:02 52.01550 -8.59536 5276 ft 192 kts 159°
2026-04-30 19:03 51.99069 -8.58026 4053 ft 189 kts 158°
2026-04-30 19:03 51.96657 -8.56574 3181 ft 172 kts 159°
2026-04-30 19:04 51.94466 -8.55264 3010 ft 169 kts 159°
2026-04-30 19:04 51.92297 -8.53953 2558 ft 164 kts 158°
2026-04-30 19:05 51.90246 -8.52739 2359 ft 154 kts 158°
2026-04-30 19:05 51.88251 -8.51566 1577 ft 150 kts 156°
2026-04-30 19:06 51.86264 -8.50396 1000 ft 155 kts 155°
2026-04-30 19:06 51.85261 -8.49780 602 ft 154 kts 154°
2026-04-30 19:06 51.83604 -8.48808 505 ft 57 kts 161°
2026-04-30 19:07 51.83271 -8.48533 505 ft 2 kts 192°
2026-04-30 19:07 51.83295 -8.48616 505 ft 14 kts 323°
2026-04-30 19:08 51.83605 -8.48800 505 ft 32 kts 340°
2026-04-30 19:08 51.84060 -8.49067 505 ft 38 kts 340°
2026-04-30 19:08 51.84273 -8.49166 505 ft 20 kts 19°
2026-04-30 19:09 51.84476 -8.49032 505 ft 16 kts 337°
2026-04-30 19:09 51.84580 -8.49093 505 ft 16 kts 341°
2026-04-30 19:09 51.84682 -8.49157 505 ft 16 kts 338°
2026-04-30 19:10 51.84825 -8.49136 505 ft 10 kts 63°
2026-04-30 19:10 51.84846 -8.49057 505 ft 0 kts 67°